[[{"header":{"parameterUnit":"m.s-1","parameterCategory":1,"la1":30.2991,"la2":30.254,"lo1":-89.0895,"lo2":-89.0444,"dy":0.0017,"dx":0.0017,"nx":28,"ny":28,"refTime":"2025-01-19T09:00:00:Z","depth":0,"parameterNumber":2,"parameterNumberName":"U-component_of_WINDS"},"data":[0,0,0,0,0,0,0,0,0,0,0,0,0,0,0,0,0,0,0,0,0,0,0,0,0,0,0,0,0,0,0,0,0,0,0,0,0,0,0,0,0,0,0,0,0,0,0,0,0,0,0,0,0,0,0,0,0,0,-3.8137,-3.8137,0,-3.8163,-3.8163,-3.8164,-3.8034,-3.803,-3.8027,-3.8023,-3.8055,-3.806,-3.8064,0,0,0,0,0,0,0,0,0,0,0,0,0,-3.7978,-3.7982,-3.8136,-3.8137,-3.8137,-3.8163,-3.8163,-3.8164,-3.8035,-3.803,-3.8026,-3.8021,-3.8054,-3.8059,-3.8064,0,0,0,0,0,0,0,0,0,0,0,0,0,-3.803,-3.7983,-3.8136,-3.8076,-3.8071,-3.8163,-3.8163,-3.8164,-3.8036,-3.803,-3.8024,-3.8019,-3.8052,-3.8058,-3.8065,-3.8218,0,0,-3.8085,-3.8088,0,0,0,0,0,0,0,0,-3.8027,-3.8036,-3.8084,-3.808,-3.8074,-3.8089,-3.8119,-3.8182,-3.8037,-3.8049,-3.8023,-3.8016,-3.8072,-3.8076,-3.8094,-3.822,-3.8221,-3.8086,-3.809,-3.8092,-3.8094,0,0,0,0,0,0,0,-3.8024,-3.8034,-3.8147,-3.8085,-3.8079,-3.8048,-3.805,-3.813,-3.8092,-3.8048,-3.8038,-3.8043,-3.8068,-3.8088,-3.8093,-3.8222,-3.8085,-3.8091,-3.8095,-3.8098,-3.8475,-3.848,0,0,0,0,0,0,-3.8028,-3.8032,-3.8146,-3.8148,-3.8036,-3.8056,-3.8057,-3.809,-3.8091,-3.8085,-3.8048,-3.8037,-3.8079,-3.8086,-3.8094,-3.8274,-3.8092,-3.8098,-3.8102,-3.8469,-3.8476,-3.8482,0,0,0,0,0,0,-3.8025,-3.8039,-3.8145,-3.8087,-3.8098,-3.8065,-3.8103,-3.8094,-3.8113,-3.809,-3.8083,-3.8075,-3.8075,-3.8085,-3.8188,-3.8273,-3.8101,-3.8107,-3.8461,-3.8471,-3.8479,-3.8635,0,0,0,0,0,0,-3.8021,-3.8039,-3.8096,-3.809,-3.8102,-3.8238,-3.8108,-3.8098,-3.8125,-3.8111,-3.8114,-3.8109,-3.8071,-3.8179,-3.8195,-3.8279,-3.8112,-3.8454,-3.8466,-3.8476,-3.8622,-3.8648,-3.867,0,0,0,0,0,-3.8016,-3.814,-3.81,-3.8114,-3.8173,-3.8243,-3.825,-3.8203,-3.8132,-3.819,-3.8175,-3.8109,-3.8261,-3.8191,-3.8207,-3.8295,-3.8448,-3.8462,-3.8475,-3.8611,-3.8643,-3.867,0,0,0,0,0,0,-3.816,-3.8138,-3.8093,-3.8219,-3.8234,-3.8221,-3.8293,-3.8238,-3.8275,-3.826,-3.8201,-3.8203,-3.8316,-3.8315,-3.8237,-3.8443,-3.8342,-3.836,-3.844,-3.847,-3.8494,-3.8492,-3.8118,0,0,0,0,0,-3.8206,-3.8263,-3.8242,-3.8355,-3.8364,-3.8328,-3.8357,-3.8318,-3.8332,-3.8338,-3.833,-3.8347,-3.8398,-3.8434,-3.8479,-3.862,-3.862,-3.8689,-3.8713,-3.8733,-3.875,-3.8824,-3.8855,-3.8527,-3.8527,-3.8527,0,0,-3.8302,-3.8297,-3.8338,-3.8384,-3.8391,-3.8453,-3.8334,-3.8405,-3.8451,-3.8349,-3.8446,-3.8441,-3.8456,-3.8578,-3.8632,-3.8581,-3.8839,-3.875,-3.8766,-3.8772,-3.8841,-3.8872,-3.89,-3.8537,-3.8535,-3.8534,0,0,-3.851,-3.8512,-3.8606,-3.8615,-3.8626,-3.86,-3.8623,-3.8618,-3.8611,-3.8706,-3.8631,-3.8685,-3.8775,-3.8788,-3.8807,-3.9018,-3.896,-3.9035,-3.9163,-3.9236,-3.9262,-3.9284,-3.9361,-3.9388,-3.9051,-3.9051,-3.9052,0,-3.863,-3.8719,-3.8662,-3.8738,-3.8761,-3.8669,-3.8764,-3.8776,-3.8803,-3.8821,-3.8763,-3.8872,-3.8876,-3.9001,-3.9052,-3.907,-3.9095,-3.9035,-3.9262,-3.9284,-3.9305,-3.9377,-3.9405,-3.906,-3.9059,-3.9058,-3.9058,0,-3.8865,-3.8928,-3.9003,-3.9029,-3.906,-3.9146,-3.9103,-3.9141,-3.91,-3.9081,-3.9179,-3.9179,-3.9224,-3.925,-3.9211,-3.9369,-3.9337,-3.9272,-3.917,-3.9346,-3.9413,-3.944,-3.9074,-3.907,-3.9068,-3.9065,0,0,-3.9167,-3.9158,-3.9187,-3.9198,-3.9202,-3.9251,-3.9332,-3.9373,-3.9408,-3.9429,-3.9496,-3.9573,-3.9512,-3.9533,-3.9494,-3.9559,-3.9727,-3.9485,-3.9484,-3.9531,-3.9902,-3.9953,-3.9985,-3.9687,-3.9692,-3.9696,-3.9901,0,-3.9371,-3.9509,-3.9459,-3.96,-3.9658,-3.9571,-3.9642,-3.9653,-3.9637,-3.9685,-3.9667,-3.9723,-3.9637,-3.9649,-3.9709,-3.9694,-3.9801,-3.9678,-3.9751,-3.9754,-3.9752,-4.002,-4.0074,-4.0268,-3.9927,-3.9931,-3.9934,0,-3.9629,-3.9658,-3.9805,-3.9798,-3.9821,-3.9885,-3.9919,-3.9965,-3.9976,-3.9959,-3.9983,-3.993,-4.001,-3.9906,-4.0017,-3.9934,-3.9961,-3.9958,-3.9964,-3.9971,-3.9856,-4.0035,-4.0328,-4.0358,-3.9975,-3.9971,-3.9968,0,-3.9836,-3.9912,-4.0009,-4.002,-4.0015,-4.0063,-4.0063,-4.0068,-4.0096,-4.0125,-4.0143,-4.0182,-4.0204,-4.0236,-4.0196,-4.0124,-4.0313,-4.0205,-4.0303,-4.0304,-4.0348,-4.0346,-4.0651,-4.0363,-4.0362,-4.0362,-4.0361,0,-4.007,-4.0164,-4.0102,-4.0162,-4.0264,-4.0206,-4.0309,-4.03,-4.0305,-4.0362,-4.0289,-4.0345,-4.0287,-4.0338,-4.0307,-4.0403,-4.0414,-4.0404,-4.0395,-4.0411,-4.0413,-4.0429,-4.0416,-4.037,-4.0368,-4.0366,-4.0365,0,-4.032,-4.0282,-4.0382,-4.0368,-4.0367,-4.0443,-4.0431,-4.0487,-4.0464,-4.0538,-4.0552,-4.0518,-4.0574,-4.0535,-4.0592,-4.0571,-4.0698,-4.0669,-4.0694,-4.0687,-4.0787,-4.0779,-4.1114,-4.1156,-4.084,-4.0843,-4.0845,0,-4.0473,-4.0543,-4.0535,-4.0567,-4.0572,-4.0625,-4.0652,-4.0598,-4.063,-4.0646,-4.07,-4.0749,-4.0786,-4.0879,-4.086,-4.0903,-4.0876,-4.099,-4.0882,-4.0896,-4.0879,-4.0876,-4.0883,-4.1013,-4.1017,-4.102,-4.1022,0,-4.0749,-4.0726,-4.0768,-4.0803,-4.0837,-4.0862,-4.0881,-4.0912,-4.0857,-4.0897,-4.0951,-4.098,-4.1036,-4.1086,-4.1121,-4.1122,-4.1065,-4.1056,-4.1081,-4.11,-4.1112,-4.1108,-4.0756,-4.1049,-4.1046,-4.1045,-4.1043,-4.1042,-4.0956,-4.1014,-4.1017,-4.1065,-4.1074,-4.1093,-4.1144,-4.1127,-4.1172,-4.1212,-4.1177,-4.1244,-4.1252,-4.1292,-4.1301,-4.1352,-4.1306,-4.1342,-4.1351,-4.1361,-4.1376,-4.1102,-4.1358,-4.1358,-4.1357,-4.1356,-4.1355,0,-4.123,-4.1227,-4.1271,-4.13,-4.1338,-4.1277,-4.1295,-4.1331,-4.139,-4.1402,-4.1438,-4.1502,-4.1549,-4.1533,-4.1575,-4.162,-4.1595,-4.1633,-4.163,-4.1632,-4.1415,-4.1389,-4.1653,-4.1653,-4.1653,-4.1653,-4.1653,-4.1653,-4.1376,-4.1471,-4.1448,-4.1546,-4.1542,-4.1605,-4.1621,-4.1639,-4.1647,-4.1721,-4.1759,-4.1747,-4.1748,-4.179,-4.1831,-4.1825,-4.1845,-4.1894,-4.1878,-4.1676,-4.1647,-4.1619,-4.1595,-4.1898,-4.1898,-4.2091,-4.2093,-4.2094]},{"header":{"parameterUnit":"m.s-1","parameterCategory":1,"la1":30.2991,"la2":30.254,"lo1":-89.0895,"lo2":-89.0444,"dy":0.0017,"dx":0.0017,"nx":28,"ny":28,"refTime":"2025-01-19T09:00:00:Z","depth":0,"parameterNumber":3,"parameterNumberName":"V-component_of_WINDS"},"data":[0,0,0,0,0,0,0,0,0,0,0,0,0,0,0,0,0,0,0,0,0,0,0,0,0,0,0,0,0,0,0,0,0,0,0,0,0,0,0,0,0,0,0,0,0,0,0,0,0,0,0,0,0,0,0,0,0,0,-5.0572,-5.0572,0,-5.0587,-5.0588,-5.0588,-5.054,-5.0539,-5.0537,-5.0536,-5.0551,-5.0552,-5.0554,0,0,0,0,0,0,0,0,0,0,0,0,0,-5.0499,-5.0501,-5.0572,-5.0572,-5.0572,-5.0587,-5.0588,-5.0588,-5.0541,-5.0539,-5.0537,-5.0535,-5.055,-5.0552,-5.0554,0,0,0,0,0,0,0,0,0,0,0,0,0,-5.0524,-5.0501,-5.0572,-5.0551,-5.0549,-5.0587,-5.0588,-5.0588,-5.0541,-5.0539,-5.0537,-5.0535,-5.0549,-5.0552,-5.0554,-5.0614,0,0,-5.0562,-5.0564,0,0,0,0,0,0,0,0,-5.0523,-5.0527,-5.0554,-5.0552,-5.055,-5.056,-5.0567,-5.0597,-5.0541,-5.0544,-5.0536,-5.0533,-5.0555,-5.0557,-5.0565,-5.0615,-5.0615,-5.0563,-5.0564,-5.0565,-5.0566,0,0,0,0,0,0,0,-5.0521,-5.0526,-5.0578,-5.0554,-5.0552,-5.0539,-5.0541,-5.0572,-5.0562,-5.0544,-5.054,-5.0543,-5.0554,-5.0563,-5.0565,-5.0615,-5.0563,-5.0565,-5.0566,-5.0567,-5.0712,-5.0714,0,0,0,0,0,0,-5.0522,-5.0525,-5.0577,-5.0578,-5.0531,-5.0542,-5.0544,-5.0559,-5.0561,-5.0559,-5.0544,-5.054,-5.0559,-5.0562,-5.0565,-5.0633,-5.0565,-5.0568,-5.0569,-5.071,-5.0713,-5.0715,0,0,0,0,0,0,-5.0521,-5.0528,-5.0577,-5.0551,-5.0556,-5.0546,-5.0563,-5.056,-5.0569,-5.0562,-5.0559,-5.0555,-5.0558,-5.0562,-5.0602,-5.0633,-5.0569,-5.0571,-5.0707,-5.0711,-5.0714,-5.077,0,0,0,0,0,0,-5.0519,-5.0527,-5.0551,-5.0552,-5.0558,-5.0614,-5.0565,-5.0562,-5.0574,-5.0568,-5.0571,-5.057,-5.0556,-5.0598,-5.0604,-5.0635,-5.0573,-5.0704,-5.0709,-5.0713,-5.0766,-5.0775,-5.0784,0,0,0,0,0,-5.0517,-5.0566,-5.0552,-5.0559,-5.0586,-5.0616,-5.0619,-5.0603,-5.0576,-5.0599,-5.0594,-5.057,-5.0629,-5.0603,-5.0609,-5.0641,-5.0702,-5.0707,-5.0712,-5.0762,-5.0773,-5.0783,0,0,0,0,0,0,-5.0569,-5.0566,-5.055,-5.0602,-5.0609,-5.0608,-5.0636,-5.0616,-5.0631,-5.0626,-5.0605,-5.0606,-5.0649,-5.065,-5.062,-5.0698,-5.0661,-5.0668,-5.0696,-5.0707,-5.0716,-5.0714,-5.0575,0,0,0,0,0,-5.0586,-5.0611,-5.0607,-5.0653,-5.0657,-5.0646,-5.0658,-5.0645,-5.0652,-5.0655,-5.0653,-5.0661,-5.068,-5.0694,-5.0712,-5.0766,-5.0765,-5.0791,-5.08,-5.0808,-5.0813,-5.0839,-5.085,-5.0732,-5.0732,-5.0732,0,0,-5.0623,-5.0624,-5.0641,-5.0663,-5.0668,-5.0692,-5.0649,-5.0678,-5.0696,-5.0659,-5.0696,-5.0696,-5.0702,-5.0749,-5.0769,-5.075,-5.0846,-5.0814,-5.082,-5.0822,-5.0846,-5.0857,-5.0867,-5.0735,-5.0735,-5.0734,0,0,-5.0701,-5.0706,-5.0743,-5.0748,-5.0755,-5.0747,-5.0756,-5.0758,-5.0756,-5.0793,-5.0765,-5.0786,-5.0822,-5.0827,-5.0834,-5.0913,-5.0891,-5.092,-5.0966,-5.0992,-5.1001,-5.1009,-5.1036,-5.1045,-5.0926,-5.0926,-5.0926,0,-5.0745,-5.0782,-5.0765,-5.0795,-5.0804,-5.0773,-5.0809,-5.0815,-5.0828,-5.0835,-5.0814,-5.0856,-5.0859,-5.0905,-5.0924,-5.0932,-5.094,-5.0919,-5.1001,-5.1009,-5.1017,-5.1041,-5.1052,-5.0929,-5.0929,-5.0929,-5.0928,0,-5.0835,-5.0861,-5.089,-5.0903,-5.0916,-5.095,-5.0936,-5.0951,-5.0937,-5.093,-5.0968,-5.097,-5.0986,-5.0997,-5.0983,-5.1041,-5.1029,-5.1005,-5.0967,-5.1032,-5.1054,-5.1064,-5.0934,-5.0933,-5.0932,-5.0931,0,0,-5.0946,-5.0948,-5.0959,-5.0963,-5.0969,-5.0988,-5.1019,-5.1036,-5.1048,-5.1058,-5.1083,-5.1113,-5.1091,-5.1099,-5.1086,-5.1109,-5.1169,-5.1082,-5.1082,-5.1096,-5.123,-5.1246,-5.1258,-5.1155,-5.1156,-5.1158,-5.1229,0,-5.1022,-5.1075,-5.106,-5.1113,-5.1136,-5.1106,-5.1133,-5.1138,-5.1133,-5.1151,-5.1145,-5.1166,-5.1137,-5.1141,-5.1163,-5.1157,-5.1195,-5.1152,-5.1176,-5.1177,-5.1173,-5.127,-5.1287,-5.1354,-5.1238,-5.1239,-5.124,0,-5.1117,-5.113,-5.1185,-5.1185,-5.1194,-5.1218,-5.1231,-5.1249,-5.1255,-5.1249,-5.1258,-5.124,-5.1269,-5.1232,-5.1272,-5.1243,-5.1252,-5.125,-5.1252,-5.1252,-5.1211,-5.127,-5.1375,-5.1385,-5.1255,-5.1254,-5.1252,0,-5.119,-5.1221,-5.1258,-5.1263,-5.1264,-5.1282,-5.1283,-5.1286,-5.1296,-5.1308,-5.1314,-5.1329,-5.1337,-5.1348,-5.1334,-5.1309,-5.1375,-5.1337,-5.137,-5.137,-5.1383,-5.1382,-5.1489,-5.1393,-5.1393,-5.1393,-5.1392,0,-5.1275,-5.1309,-5.129,-5.1313,-5.135,-5.1332,-5.1369,-5.1367,-5.1369,-5.139,-5.1365,-5.1385,-5.1366,-5.1384,-5.1373,-5.1406,-5.141,-5.1405,-5.1402,-5.1406,-5.1407,-5.141,-5.1405,-5.1395,-5.1395,-5.1394,-5.1394,0,-5.1362,-5.1351,-5.1388,-5.1386,-5.1386,-5.1413,-5.1411,-5.1431,-5.1424,-5.145,-5.1455,-5.1445,-5.1464,-5.1451,-5.1471,-5.1464,-5.1506,-5.1497,-5.1504,-5.1501,-5.1533,-5.153,-5.1645,-5.1658,-5.1555,-5.1556,-5.1557,0,-5.1415,-5.1441,-5.1441,-5.1453,-5.1456,-5.1476,-5.1486,-5.1469,-5.148,-5.1487,-5.1506,-5.1523,-5.1536,-5.1568,-5.1562,-5.1577,-5.1566,-5.1606,-5.1568,-5.1572,-5.1564,-5.1562,-5.1563,-5.1612,-5.1614,-5.1615,-5.1616,0,-5.1511,-5.1504,-5.152,-5.1533,-5.1546,-5.1556,-5.1564,-5.1575,-5.1558,-5.1572,-5.1591,-5.1601,-5.1621,-5.1638,-5.165,-5.165,-5.1629,-5.1628,-5.1635,-5.1639,-5.1641,-5.1638,-5.1523,-5.1625,-5.1624,-5.1623,-5.1622,-5.1622,-5.1582,-5.1602,-5.1605,-5.1623,-5.1627,-5.1634,-5.1652,-5.1647,-5.1663,-5.1678,-5.1667,-5.1689,-5.1692,-5.1706,-5.1709,-5.1726,-5.171,-5.1722,-5.1725,-5.1727,-5.1731,-5.1641,-5.1729,-5.1728,-5.1728,-5.1728,-5.1728,0,-5.1674,-5.1674,-5.1691,-5.1702,-5.1716,-5.1696,-5.1703,-5.1715,-5.1736,-5.174,-5.1753,-5.1775,-5.1791,-5.1786,-5.18,-5.1814,-5.1805,-5.1818,-5.1816,-5.1816,-5.1746,-5.1736,-5.1825,-5.1825,-5.1825,-5.1825,-5.1825,-5.1825,-5.1723,-5.1756,-5.1749,-5.1783,-5.1783,-5.1805,-5.181,-5.1817,-5.182,-5.1845,-5.1858,-5.1855,-5.1855,-5.1869,-5.1882,-5.188,-5.1886,-5.1902,-5.1896,-5.1831,-5.1821,-5.1812,-5.1803,-5.1904,-5.1904,-5.1964,-5.1965,-5.1965]}]]